User: anonymous   Login
Location: Dompnac
(44.5644°N, 4.1026°E)
Time: 11:31:27
(UTC+00:00)
Language:

YAOGAN 1 - Orbit

View from above orbital plane
View from above orbital plane
View from above satellite
View from above satellite

Ground track
Ground track

The orbit data is extracted from the following two-line orbital elements,

1 29092U 06015A   20337.78476670  .00000190  00000-0  29880-4 0  9995
2 29092  97.9274   0.9460 0001396  89.6763 270.4611 14.83108518789687
Epoch (UTC): 02 December 2020 18:50:03
Eccentricity: 0.0001396
inclination: 97.9274°
perigee height: 618 km
apogee height: 620 km
right ascension of ascending node: 0.9460°
argument of perigee: 89.6763°
revolutions per day: 14.83108518
mean anomaly at epoch: 270.4611°
orbit number at epoch: 78968

The dashed part of the orbit path shows where the satellite is in the earth's shadow,  

DLR